Year,Month,Day,Hour,Minute,Value (Times are PST for barometer in hPa)
2015,02,06,00,00,988.93
2015,02,06,00,01,988.93
2015,02,06,00,02,988.89
2015,02,06,00,03,988.93
2015,02,06,00,04,988.89
2015,02,06,00,05,988.93
2015,02,06,00,06,988.93
2015,02,06,00,07,988.93
2015,02,06,00,08,988.89
2015,02,06,00,09,988.89
2015,02,06,00,10,988.89
2015,02,06,00,11,988.89
2015,02,06,00,12,988.93
2015,02,06,00,13,989.00
2015,02,06,00,14,989.09
2015,02,06,00,15,989.06
2015,02,06,00,16,989.03
2015,02,06,00,17,989.03
2015,02,06,00,18,989.03
2015,02,06,00,19,989.03
2015,02,06,00,20,989.00
2015,02,06,00,21,988.83
2015,02,06,00,22,988.86
2015,02,06,00,23,988.86
2015,02,06,00,24,988.83
2015,02,06,00,25,988.86
2015,02,06,00,26,988.93
2015,02,06,00,27,988.89
2015,02,06,00,28,988.83
2015,02,06,00,29,988.86
2015,02,06,00,30,988.83
2015,02,06,00,31,988.83
2015,02,06,00,32,988.86
2015,02,06,00,33,988.89
2015,02,06,00,34,988.83
2015,02,06,00,35,988.76
2015,02,06,00,36,988.69
2015,02,06,00,37,988.69
2015,02,06,00,38,988.76
2015,02,06,00,39,988.76
2015,02,06,00,40,988.72
2015,02,06,00,41,988.79
2015,02,06,00,42,988.69
2015,02,06,00,43,988.69
2015,02,06,00,44,988.66
2015,02,06,00,45,988.66
2015,02,06,00,46,988.66
2015,02,06,00,47,988.72
2015,02,06,00,48,988.69
2015,02,06,00,49,988.69
2015,02,06,00,50,988.69
2015,02,06,00,51,988.59
2015,02,06,00,52,988.66
2015,02,06,00,53,988.66
2015,02,06,00,54,988.62
2015,02,06,00,55,988.62
2015,02,06,00,56,988.59
2015,02,06,00,57,988.55
2015,02,06,00,58,988.55
2015,02,06,00,59,988.55
2015,02,06,01,00,988.55
2015,02,06,01,01,988.52
2015,02,06,01,02,988.59
2015,02,06,01,03,988.52
2015,02,06,01,04,988.55
2015,02,06,01,05,988.55
2015,02,06,01,06,988.55
2015,02,06,01,07,988.55
2015,02,06,01,08,988.55
2015,02,06,01,09,988.55
2015,02,06,01,10,988.59
2015,02,06,01,11,988.59
2015,02,06,01,12,988.55
2015,02,06,01,13,988.59
2015,02,06,01,14,988.59
2015,02,06,01,15,988.69
2015,02,06,01,16,988.69
2015,02,06,01,17,988.69
2015,02,06,01,18,988.66
2015,02,06,01,19,988.69
2015,02,06,01,20,988.76
2015,02,06,01,21,988.83
2015,02,06,01,22,988.83
2015,02,06,01,23,988.89
2015,02,06,01,24,988.86
2015,02,06,01,25,988.86
2015,02,06,01,26,988.76
2015,02,06,01,27,988.76
2015,02,06,01,28,988.72
2015,02,06,01,29,988.72
2015,02,06,01,30,988.69
2015,02,06,01,31,988.62
2015,02,06,01,32,988.55
2015,02,06,01,33,988.52
2015,02,06,01,34,988.52
2015,02,06,01,35,988.55
2015,02,06,01,36,988.62
2015,02,06,01,37,988.59
2015,02,06,01,38,988.62
2015,02,06,01,39,988.62
2015,02,06,01,40,988.62
2015,02,06,01,41,988.72
2015,02,06,01,42,988.72
2015,02,06,01,43,988.72
2015,02,06,01,44,988.69
2015,02,06,01,45,988.66
2015,02,06,01,46,988.62
2015,02,06,01,47,988.78
2015,02,06,01,48,988.79
2015,02,06,01,49,988.79
2015,02,06,01,50,988.86
2015,02,06,01,51,988.89
2015,02,06,01,52,988.89
2015,02,06,01,53,988.89
2015,02,06,01,54,988.86
2015,02,06,01,55,988.86
2015,02,06,01,56,988.89
2015,02,06,01,57,988.86
2015,02,06,01,58,988.83
2015,02,06,01,59,988.83
2015,02,06,02,00,988.86
2015,02,06,02,01,988.83
2015,02,06,02,02,988.83
2015,02,06,02,03,988.79
2015,02,06,02,04,988.79
2015,02,06,02,05,988.76
2015,02,06,02,06,988.76
2015,02,06,02,07,988.79
2015,02,06,02,08,988.89
2015,02,06,02,09,988.83
2015,02,06,02,10,988.83
2015,02,06,02,11,988.76
2015,02,06,02,12,988.72
2015,02,06,02,13,988.76
2015,02,06,02,14,988.79
2015,02,06,02,15,988.79
2015,02,06,02,16,988.76
2015,02,06,02,17,988.72
2015,02,06,02,18,988.76
2015,02,06,02,19,988.83
2015,02,06,02,20,988.83
2015,02,06,02,21,988.79
2015,02,06,02,22,988.79
2015,02,06,02,23,988.76
2015,02,06,02,24,988.76
2015,02,06,02,25,988.79
2015,02,06,02,26,988.86
2015,02,06,02,27,988.76
2015,02,06,02,28,988.76
2015,02,06,02,29,988.79
2015,02,06,02,30,988.79
2015,02,06,02,31,988.76
2015,02,06,02,32,988.76
2015,02,06,02,33,988.79
2015,02,06,02,34,988.83
2015,02,06,02,35,988.79
2015,02,06,02,36,988.79
2015,02,06,02,37,988.76
2015,02,06,02,38,988.72
2015,02,06,02,39,988.72
2015,02,06,02,40,988.69
2015,02,06,02,41,988.69
2015,02,06,02,42,988.69
2015,02,06,02,43,988.72
2015,02,06,02,44,988.76
2015,02,06,02,45,988.72
2015,02,06,02,46,988.72
2015,02,06,02,47,988.72
2015,02,06,02,48,988.79
2015,02,06,02,49,988.76
2015,02,06,02,50,988.76
2015,02,06,02,51,988.76
2015,02,06,02,52,988.63
2015,02,06,02,53,988.52
2015,02,06,02,54,988.52
2015,02,06,02,55,988.49
2015,02,06,02,56,988.52
2015,02,06,02,57,988.55
2015,02,06,02,58,988.52
2015,02,06,02,59,988.49
2015,02,06,03,00,988.52
2015,02,06,03,01,988.59
2015,02,06,03,02,988.62
2015,02,06,03,03,988.62
2015,02,06,03,04,988.62
2015,02,06,03,05,988.59
2015,02,06,03,06,988.62
2015,02,06,03,07,988.59
2015,02,06,03,08,988.59
2015,02,06,03,09,988.59
2015,02,06,03,10,988.55
2015,02,06,03,11,988.59
2015,02,06,03,12,988.52
2015,02,06,03,13,988.59
2015,02,06,03,14,988.59
2015,02,06,03,15,988.59
2015,02,06,03,16,988.52
2015,02,06,03,17,988.49
2015,02,06,03,18,988.42
2015,02,06,03,19,988.42
2015,02,06,03,20,988.42
2015,02,06,03,21,988.45
2015,02,06,03,22,988.49
2015,02,06,03,23,988.55
2015,02,06,03,24,988.52
2015,02,06,03,25,988.52
2015,02,06,03,26,988.55
2015,02,06,03,27,988.45
2015,02,06,03,28,988.49
2015,02,06,03,29,988.52
2015,02,06,03,30,988.52
2015,02,06,03,31,988.45
2015,02,06,03,32,988.45
2015,02,06,03,33,988.42
2015,02,06,03,34,988.42
2015,02,06,03,35,988.45
2015,02,06,03,36,988.45
2015,02,06,03,37,988.45
2015,02,06,03,38,988.45
2015,02,06,03,39,988.42
2015,02,06,03,40,988.35
2015,02,06,03,41,988.39
2015,02,06,03,42,988.35
2015,02,06,03,43,988.35
2015,02,06,03,44,988.39
2015,02,06,03,45,988.32
2015,02,06,03,46,988.28
2015,02,06,03,47,988.28
2015,02,06,03,48,988.28
2015,02,06,03,49,988.18
2015,02,06,03,50,988.25
2015,02,06,03,51,988.22
2015,02,06,03,52,988.18
2015,02,06,03,53,988.18
2015,02,06,03,54,988.11
2015,02,06,03,55,988.11
2015,02,06,03,56,988.01
2015,02,06,03,57,987.98
2015,02,06,03,58,987.91
2015,02,06,03,59,987.84
2015,02,06,04,00,987.84
2015,02,06,04,01,987.78
2015,02,06,04,02,987.78
2015,02,06,04,03,987.74
2015,02,06,04,04,987.74
2015,02,06,04,05,987.78
2015,02,06,04,06,987.74
2015,02,06,04,07,987.78
2015,02,06,04,08,987.71
2015,02,06,04,09,987.67
2015,02,06,04,10,987.67
2015,02,06,04,11,987.71
2015,02,06,04,12,987.74
2015,02,06,04,13,987.74
2015,02,06,04,14,987.71
2015,02,06,04,15,987.61
2015,02,06,04,16,987.54
2015,02,06,04,17,987.44
2015,02,06,04,18,987.44
2015,02,06,04,19,987.51
2015,02,06,04,20,987.57
2015,02,06,04,21,987.57
2015,02,06,04,22,987.57
2015,02,06,04,23,987.61
2015,02,06,04,24,987.61
2015,02,06,04,25,987.64
2015,02,06,04,26,987.57
2015,02,06,04,27,987.64
2015,02,06,04,28,987.67
2015,02,06,04,29,987.64
2015,02,06,04,30,987.57
2015,02,06,04,31,987.57
2015,02,06,04,32,987.51
2015,02,06,04,33,987.47
2015,02,06,04,34,987.47
2015,02,06,04,35,987.44
2015,02,06,04,36,987.37
2015,02,06,04,37,987.40
2015,02,06,04,38,987.37
2015,02,06,04,39,987.37
2015,02,06,04,40,987.34
2015,02,06,04,41,987.27
2015,02,06,04,42,987.34
2015,02,06,04,43,987.34
2015,02,06,04,44,987.30
2015,02,06,04,45,987.27
2015,02,06,04,46,987.23
2015,02,06,04,47,987.23
2015,02,06,04,48,987.17
2015,02,06,04,49,987.06
2015,02,06,04,50,986.96
2015,02,06,04,51,986.79
2015,02,06,04,52,986.73
2015,02,06,04,53,986.62
2015,02,06,04,54,986.68
2015,02,06,04,55,986.66
2015,02,06,04,56,986.76
2015,02,06,04,57,986.79
2015,02,06,04,58,986.79
2015,02,06,04,59,986.89
2015,02,06,05,00,987.00
2015,02,06,05,01,987.00
2015,02,06,05,02,987.06
2015,02,06,05,03,987.13
2015,02,06,05,04,987.13
2015,02,06,05,05,987.06
2015,02,06,05,06,987.00
2015,02,06,05,07,986.96
2015,02,06,05,08,986.93
2015,02,06,05,09,986.93
2015,02,06,05,10,986.90
2015,02,06,05,11,986.93
2015,02,06,05,12,986.93
2015,02,06,05,13,987.00
2015,02,06,05,14,987.12
2015,02,06,05,15,987.13
2015,02,06,05,16,987.13
2015,02,06,05,17,987.20
2015,02,06,05,18,987.20
2015,02,06,05,19,987.17
2015,02,06,05,20,987.13
2015,02,06,05,21,987.03
2015,02,06,05,22,987.03
2015,02,06,05,23,986.96
2015,02,06,05,24,986.90
2015,02,06,05,25,986.93
2015,02,06,05,26,987.00
2015,02,06,05,27,987.00
2015,02,06,05,28,986.96
2015,02,06,05,29,986.93
2015,02,06,05,30,986.86
2015,02,06,05,31,986.83
2015,02,06,05,32,986.83
2015,02,06,05,33,986.79
2015,02,06,05,34,986.63
2015,02,06,05,35,986.69
2015,02,06,05,36,986.69
2015,02,06,05,37,986.66
2015,02,06,05,38,986.62
2015,02,06,05,39,986.66
2015,02,06,05,40,986.69
2015,02,06,05,41,986.76
2015,02,06,05,42,986.83
2015,02,06,05,43,986.86
2015,02,06,05,44,986.79
2015,02,06,05,45,986.83
2015,02,06,05,46,986.79
2015,02,06,05,47,986.76
2015,02,06,05,48,986.79
2015,02,06,05,49,986.83
2015,02,06,05,50,986.76
2015,02,06,05,51,986.69
2015,02,06,05,52,986.56
2015,02,06,05,53,986.56
2015,02,06,05,54,986.47
2015,02,06,05,55,986.42
2015,02,06,05,56,986.39
2015,02,06,05,57,986.35
2015,02,06,05,58,986.39
2015,02,06,05,59,986.35
2015,02,06,06,00,986.29
2015,02,06,06,01,986.29
2015,02,06,06,02,986.35
2015,02,06,06,03,986.35
2015,02,06,06,04,986.29
2015,02,06,06,05,986.22
2015,02,06,06,06,986.12
2015,02,06,06,07,986.12
2015,02,06,06,08,986.15
2015,02,06,06,09,986.22
2015,02,06,06,10,986.12
2015,02,06,06,11,986.05
2015,02,06,06,12,986.05
2015,02,06,06,13,986.02
2015,02,06,06,14,986.02
2015,02,06,06,15,985.92
2015,02,06,06,16,985.75
2015,02,06,06,17,985.68
2015,02,06,06,18,985.61
2015,02,06,06,19,985.61
2015,02,06,06,20,985.70
2015,02,06,06,21,985.74
2015,02,06,06,22,985.74
2015,02,06,06,23,985.71
2015,02,06,06,24,985.78
2015,02,06,06,25,985.74
2015,02,06,06,26,985.74
2015,02,06,06,27,985.74
2015,02,06,06,28,985.71
2015,02,06,06,29,985.71
2015,02,06,06,30,985.68
2015,02,06,06,31,985.64
2015,02,06,06,32,985.57
2015,02,06,06,33,985.54
2015,02,06,06,34,985.61
2015,02,06,06,35,985.64
2015,02,06,06,36,985.54
2015,02,06,06,37,985.51
2015,02,06,06,38,985.51
2015,02,06,06,39,985.54
2015,02,06,06,40,985.47
2015,02,06,06,41,985.44
2015,02,06,06,42,985.51
2015,02,06,06,43,985.57
2015,02,06,06,44,985.64
2015,02,06,06,45,985.68
2015,02,06,06,46,985.71
2015,02,06,06,47,985.71
2015,02,06,06,48,985.74
2015,02,06,06,49,985.64
2015,02,06,06,50,985.61
2015,02,06,06,51,985.64
2015,02,06,06,52,985.71
2015,02,06,06,53,985.68
2015,02,06,06,54,985.68
2015,02,06,06,55,985.64
2015,02,06,06,56,985.71
2015,02,06,06,57,985.71
2015,02,06,06,58,985.71
2015,02,06,06,59,985.74
2015,02,06,07,00,985.74
2015,02,06,07,01,985.81
2015,02,06,07,02,985.85
2015,02,06,07,03,985.81
2015,02,06,07,04,985.78
2015,02,06,07,05,985.74
2015,02,06,07,06,985.81
2015,02,06,07,07,985.78
2015,02,06,07,08,985.68
2015,02,06,07,09,985.68
2015,02,06,07,10,985.61
2015,02,06,07,11,985.61
2015,02,06,07,12,985.57
2015,02,06,07,13,985.51
2015,02,06,07,14,985.51
2015,02,06,07,15,985.41
2015,02,06,07,16,985.28
2015,02,06,07,17,985.24
2015,02,06,07,18,985.30
2015,02,06,07,19,985.27
2015,02,06,07,20,985.24
2015,02,06,07,21,985.34
2015,02,06,07,22,985.30
2015,02,06,07,23,985.24
2015,02,06,07,24,985.14
2015,02,06,07,25,985.10
2015,02,06,07,26,985.03
2015,02,06,07,27,985.03
2015,02,06,07,28,984.93
2015,02,06,07,29,984.97
2015,02,06,07,30,984.97
2015,02,06,07,31,985.00
2015,02,06,07,32,985.07
2015,02,06,07,33,985.16
2015,02,06,07,34,985.24
2015,02,06,07,35,985.27
2015,02,06,07,36,985.34
2015,02,06,07,37,985.41
2015,02,06,07,38,985.41
2015,02,06,07,39,985.34
2015,02,06,07,40,985.41
2015,02,06,07,41,985.37
2015,02,06,07,42,985.34
2015,02,06,07,43,985.21
2015,02,06,07,44,985.14
2015,02,06,07,45,985.10
2015,02,06,07,46,985.07
2015,02,06,07,47,985.10
2015,02,06,07,48,985.07
2015,02,06,07,49,985.10
2015,02,06,07,50,985.20
2015,02,06,07,51,985.29
2015,02,06,07,52,985.24
2015,02,06,07,53,985.24
2015,02,06,07,54,985.27
2015,02,06,07,55,985.30
2015,02,06,07,56,985.27
2015,02,06,07,57,985.30
2015,02,06,07,58,985.34
2015,02,06,07,59,985.44
2015,02,06,08,00,985.37
2015,02,06,08,01,985.44
2015,02,06,08,02,985.41
2015,02,06,08,03,985.44
2015,02,06,08,04,985.44
2015,02,06,08,05,985.37
2015,02,06,08,06,985.41
2015,02,06,08,07,985.41
2015,02,06,08,08,985.53
2015,02,06,08,09,985.54
2015,02,06,08,10,985.51
2015,02,06,08,11,985.51
2015,02,06,08,12,985.51
2015,02,06,08,13,985.54
2015,02,06,08,14,985.64
2015,02,06,08,15,985.68
2015,02,06,08,16,985.64
2015,02,06,08,17,985.61
2015,02,06,08,18,985.57
2015,02,06,08,19,985.57
2015,02,06,08,20,985.57
2015,02,06,08,21,985.54
2015,02,06,08,22,985.54
2015,02,06,08,23,985.51
2015,02,06,08,24,985.57
2015,02,06,08,25,985.47
2015,02,06,08,26,985.41
2015,02,06,08,27,985.44
2015,02,06,08,28,985.47
2015,02,06,08,29,985.44
2015,02,06,08,30,985.41
2015,02,06,08,31,985.41
2015,02,06,08,32,985.44
2015,02,06,08,33,985.51
2015,02,06,08,34,985.64
2015,02,06,08,35,985.68
2015,02,06,08,36,985.73
2015,02,06,08,37,985.74
2015,02,06,08,38,985.78
2015,02,06,08,39,985.78
2015,02,06,08,40,985.88
2015,02,06,08,41,985.91
2015,02,06,08,42,985.91
2015,02,06,08,43,985.98
2015,02,06,08,44,985.95
2015,02,06,08,45,985.98
2015,02,06,08,46,986.08
2015,02,06,08,47,986.15
2015,02,06,08,48,986.18
2015,02,06,08,49,986.22
2015,02,06,08,50,986.18
2015,02,06,08,51,986.12
2015,02,06,08,52,986.12
2015,02,06,08,53,986.05
2015,02,06,08,54,986.12
2015,02,06,08,55,986.15
2015,02,06,08,56,986.12
2015,02,06,08,57,986.15
2015,02,06,08,58,986.18
2015,02,06,08,59,986.25
2015,02,06,09,00,986.29
2015,02,06,09,01,986.32
2015,02,06,09,02,986.32
2015,02,06,09,03,986.29
2015,02,06,09,04,986.18
2015,02,06,09,05,986.22
2015,02,06,09,06,986.29
2015,02,06,09,07,986.29
2015,02,06,09,08,986.32
2015,02,06,09,09,986.39
2015,02,06,09,10,986.39
2015,02,06,09,11,986.32
2015,02,06,09,12,986.35
2015,02,06,09,13,986.46
2015,02,06,09,14,986.52
2015,02,06,09,15,986.56
2015,02,06,09,16,986.52
2015,02,06,09,17,986.49
2015,02,06,09,18,986.59
2015,02,06,09,19,986.52
2015,02,06,09,20,986.56
2015,02,06,09,21,986.62
2015,02,06,09,22,986.53
2015,02,06,09,23,986.61
2015,02,06,09,24,986.79
2015,02,06,09,25,986.83
2015,02,06,09,26,986.83
2015,02,06,09,27,986.86
2015,02,06,09,28,986.93
2015,02,06,09,29,986.93
2015,02,06,09,30,986.96
2015,02,06,09,31,986.93
2015,02,06,09,32,986.93
2015,02,06,09,33,986.93
2015,02,06,09,34,986.93
2015,02,06,09,35,986.90
2015,02,06,09,36,986.86
2015,02,06,09,37,986.86
2015,02,06,09,38,986.86
2015,02,06,09,39,986.96
2015,02,06,09,40,986.86
2015,02,06,09,41,986.96
2015,02,06,09,42,987.03
2015,02,06,09,43,987.06
2015,02,06,09,44,987.10
2015,02,06,09,45,987.20
2015,02,06,09,46,987.23
2015,02,06,09,47,987.23
2015,02,06,09,48,987.30
2015,02,06,09,49,987.30
2015,02,06,09,50,987.30
2015,02,06,09,51,987.46
2015,02,06,09,52,987.47
2015,02,06,09,53,987.40
2015,02,06,09,54,987.40
2015,02,06,09,55,987.30
2015,02,06,09,56,987.34
2015,02,06,09,57,987.27
2015,02,06,09,58,987.34
2015,02,06,09,59,987.34
2015,02,06,10,00,987.24
2015,02,06,10,01,987.20
2015,02,06,10,02,987.17
2015,02,06,10,03,987.17
2015,02,06,10,04,987.20
2015,02,06,10,05,987.17
2015,02,06,10,06,987.17
2015,02,06,10,07,987.13
2015,02,06,10,08,987.26
2015,02,06,10,09,987.30
2015,02,06,10,10,987.27
2015,02,06,10,11,987.20
2015,02,06,10,12,987.17
2015,02,06,10,13,987.13
2015,02,06,10,14,987.13
2015,02,06,10,15,987.20
2015,02,06,10,16,987.23
2015,02,06,10,17,987.17
2015,02,06,10,18,987.13
2015,02,06,10,19,987.13
2015,02,06,10,20,987.10
2015,02,06,10,21,987.13
2015,02,06,10,22,987.17
2015,02,06,10,23,987.29
2015,02,06,10,24,987.37
2015,02,06,10,25,987.31
2015,02,06,10,26,987.37
2015,02,06,10,27,987.28
2015,02,06,10,28,987.30
2015,02,06,10,29,987.27
2015,02,06,10,30,987.39
2015,02,06,10,31,987.51
2015,02,06,10,32,987.51
2015,02,06,10,33,987.51
2015,02,06,10,34,987.51
2015,02,06,10,35,987.51
2015,02,06,10,36,987.47
2015,02,06,10,37,987.47
2015,02,06,10,38,987.54
2015,02,06,10,39,987.61
2015,02,06,10,40,987.57
2015,02,06,10,41,987.57
2015,02,06,10,42,987.64
2015,02,06,10,43,987.67
2015,02,06,10,44,987.71
2015,02,06,10,45,987.67
2015,02,06,10,46,987.61
2015,02,06,10,47,987.64
2015,02,06,10,48,987.64
2015,02,06,10,49,987.57
2015,02,06,10,50,987.61
2015,02,06,10,51,987.61
2015,02,06,10,52,987.57
2015,02,06,10,53,987.41
2015,02,06,10,54,987.34
2015,02,06,10,55,987.27
2015,02,06,10,56,987.27
2015,02,06,10,57,987.20
2015,02,06,10,58,987.27
2015,02,06,10,59,987.30
2015,02,06,11,00,987.23
2015,02,06,11,01,987.30
2015,02,06,11,02,987.23
2015,02,06,11,03,987.23
2015,02,06,11,04,987.23
2015,02,06,11,05,987.30
2015,02,06,11,06,987.21
2015,02,06,11,07,987.23
2015,02,06,11,08,987.36
2015,02,06,11,09,987.37
2015,02,06,11,10,987.37
2015,02,06,11,11,987.44
2015,02,06,11,12,987.47
2015,02,06,11,13,987.51
2015,02,06,11,14,987.47
2015,02,06,11,15,987.51
2015,02,06,11,16,987.57
2015,02,06,11,17,987.61
2015,02,06,11,18,987.73
2015,02,06,11,19,987.84
2015,02,06,11,20,987.91
2015,02,06,11,21,987.95
2015,02,06,11,22,987.95
2015,02,06,11,23,987.98
2015,02,06,11,24,988.01
2015,02,06,11,25,988.05
2015,02,06,11,26,988.08
2015,02,06,11,27,988.08
2015,02,06,11,28,988.08
2015,02,06,11,29,988.05
2015,02,06,11,30,988.05
2015,02,06,11,31,988.11
2015,02,06,11,32,988.08
2015,02,06,11,33,988.08
2015,02,06,11,34,988.01
2015,02,06,11,35,987.98
2015,02,06,11,36,988.05
2015,02,06,11,37,988.11
2015,02,06,11,38,988.05
2015,02,06,11,39,988.08
2015,02,06,11,40,988.08
2015,02,06,11,41,988.11
2015,02,06,11,42,988.11
2015,02,06,11,43,988.15
2015,02,06,11,44,988.11
2015,02,06,11,45,988.18
2015,02,06,11,46,988.25
2015,02,06,11,47,988.28
2015,02,06,11,48,988.28
2015,02,06,11,49,988.25
2015,02,06,11,50,988.32
2015,02,06,11,51,988.32
2015,02,06,11,52,988.35
2015,02,06,11,53,988.32
2015,02,06,11,54,988.39
2015,02,06,11,55,988.35
2015,02,06,11,56,988.32
2015,02,06,11,57,988.39
2015,02,06,11,58,988.28
2015,02,06,11,59,988.22
2015,02,06,12,00,988.18
2015,02,06,12,01,988.09
2015,02,06,12,02,988.08
2015,02,06,12,03,988.05
2015,02,06,12,04,988.01
2015,02,06,12,05,988.01
2015,02,06,12,06,988.05
2015,02,06,12,07,988.15
2015,02,06,12,08,988.08
2015,02,06,12,09,988.08
2015,02,06,12,10,988.08
2015,02,06,12,11,988.05
2015,02,06,12,12,987.96
2015,02,06,12,13,987.91
2015,02,06,12,14,987.91
2015,02,06,12,15,987.95
2015,02,06,12,16,987.95
2015,02,06,12,17,988.00
2015,02,06,12,18,987.96
2015,02,06,12,19,987.98
2015,02,06,12,20,987.98
2015,02,06,12,21,987.98
2015,02,06,12,22,988.04
2015,02,06,12,23,988.11
2015,02,06,12,24,988.18
2015,02,06,12,25,988.12
2015,02,06,12,26,988.21
2015,02,06,12,27,988.15
2015,02,06,12,28,988.15
2015,02,06,12,29,988.08
2015,02,06,12,30,987.98
2015,02,06,12,31,987.91
2015,02,06,12,32,988.04
2015,02,06,12,33,988.08
2015,02,06,12,34,988.14
2015,02,06,12,35,988.05
2015,02,06,12,36,987.91
2015,02,06,12,37,987.82
2015,02,06,12,38,987.84
2015,02,06,12,39,987.84
2015,02,06,12,40,987.84
2015,02,06,12,41,987.94
2015,02,06,12,42,987.95
2015,02,06,12,43,987.88
2015,02,06,12,44,987.84
2015,02,06,12,45,987.81
2015,02,06,12,46,987.74
2015,02,06,12,47,987.67
2015,02,06,12,48,987.74
2015,02,06,12,49,987.81
2015,02,06,12,50,987.84
2015,02,06,12,51,987.81
2015,02,06,12,52,987.84
2015,02,06,12,53,987.95
2015,02,06,12,54,987.91
2015,02,06,12,55,987.95
2015,02,06,12,56,987.98
2015,02,06,12,57,988.05
2015,02,06,12,58,988.08
2015,02,06,12,59,988.15
2015,02,06,13,00,988.05
2015,02,06,13,01,988.01
2015,02,06,13,02,988.05
2015,02,06,13,03,988.01
2015,02,06,13,04,987.98
2015,02,06,13,05,988.01
2015,02,06,13,06,987.98
2015,02,06,13,07,987.89
2015,02,06,13,08,987.94
2015,02,06,13,09,988.01
2015,02,06,13,10,988.01
2015,02,06,13,11,988.01
2015,02,06,13,12,988.08
2015,02,06,13,13,988.15
2015,02,06,13,14,988.24
2015,02,06,13,15,988.28
2015,02,06,13,16,988.28
2015,02,06,13,17,988.22
2015,02,06,13,18,988.22
2015,02,06,13,19,988.22
2015,02,06,13,20,988.28
2015,02,06,13,21,988.28
2015,02,06,13,22,988.32
2015,02,06,13,23,988.39
2015,02,06,13,24,988.35
2015,02,06,13,25,988.35
2015,02,06,13,26,988.39
2015,02,06,13,27,988.32
2015,02,06,13,28,988.26
2015,02,06,13,29,988.25
2015,02,06,13,30,988.22
2015,02,06,13,31,988.18
2015,02,06,13,32,988.22
2015,02,06,13,33,988.28
2015,02,06,13,34,988.32
2015,02,06,13,35,988.39
2015,02,06,13,36,988.45
2015,02,06,13,37,988.39
2015,02,06,13,38,988.39
2015,02,06,13,39,988.35
2015,02,06,13,40,988.42
2015,02,06,13,41,988.45
2015,02,06,13,42,988.45
2015,02,06,13,43,988.42
2015,02,06,13,44,988.45
2015,02,06,13,45,988.42
2015,02,06,13,46,988.45
2015,02,06,13,47,988.49
2015,02,06,13,48,988.52
2015,02,06,13,49,988.49
2015,02,06,13,50,988.49
2015,02,06,13,51,988.45
2015,02,06,13,52,988.45
2015,02,06,13,53,988.54
2015,02,06,13,54,988.55
2015,02,06,13,55,988.52
2015,02,06,13,56,988.55
2015,02,06,13,57,988.55
2015,02,06,13,58,988.55
2015,02,06,13,59,988.68
2015,02,06,14,00,988.62
2015,02,06,14,01,988.62
2015,02,06,14,02,988.59
2015,02,06,14,03,988.59
2015,02,06,14,04,988.55
2015,02,06,14,05,988.59
2015,02,06,14,06,988.55
2015,02,06,14,07,988.52
2015,02,06,14,08,988.59
2015,02,06,14,09,988.62
2015,02,06,14,10,988.69
2015,02,06,14,11,988.59
2015,02,06,14,12,988.59
2015,02,06,14,13,988.52
2015,02,06,14,14,988.45
2015,02,06,14,15,988.45
2015,02,06,14,16,988.49
2015,02,06,14,17,988.45
2015,02,06,14,18,988.45
2015,02,06,14,19,988.49
2015,02,06,14,20,988.52
2015,02,06,14,21,988.46
2015,02,06,14,22,988.45
2015,02,06,14,23,988.39
2015,02,06,14,24,988.42
2015,02,06,14,25,988.52
2015,02,06,14,26,988.55
2015,02,06,14,27,988.68
2015,02,06,14,28,988.72
2015,02,06,14,29,988.69
2015,02,06,14,30,988.59
2015,02,06,14,31,988.46
2015,02,06,14,32,988.45
2015,02,06,14,33,988.45
2015,02,06,14,34,988.49
2015,02,06,14,35,988.45
2015,02,06,14,36,988.45
2015,02,06,14,37,988.54
2015,02,06,14,38,988.55
2015,02,06,14,39,988.68
2015,02,06,14,40,988.78
2015,02,06,14,41,988.83
2015,02,06,14,42,988.83
2015,02,06,14,43,988.83
2015,02,06,14,44,988.79
2015,02,06,14,45,988.89
2015,02,06,14,46,988.89
2015,02,06,14,47,988.89
2015,02,06,14,48,988.93
2015,02,06,14,49,988.84
2015,02,06,14,50,988.83
2015,02,06,14,51,988.89
2015,02,06,14,52,988.83
2015,02,06,14,53,988.86
2015,02,06,14,54,988.86
2015,02,06,14,55,988.86
2015,02,06,14,56,988.83
2015,02,06,14,57,988.95
2015,02,06,14,58,989.00
2015,02,06,14,59,988.96
2015,02,06,15,00,988.96
2015,02,06,15,01,989.02
2015,02,06,15,02,989.00
2015,02,06,15,03,989.00
2015,02,06,15,04,989.06
2015,02,06,15,05,989.16
2015,02,06,15,06,989.10
2015,02,06,15,07,989.13
2015,02,06,15,08,989.03
2015,02,06,15,09,989.06
2015,02,06,15,10,989.16
2015,02,06,15,11,989.10
2015,02,06,15,12,989.13
2015,02,06,15,13,989.10
2015,02,06,15,14,988.90
2015,02,06,15,15,988.89
2015,02,06,15,16,988.77
2015,02,06,15,17,988.69
2015,02,06,15,18,988.78
2015,02,06,15,19,988.86
2015,02,06,15,20,988.93
2015,02,06,15,21,989.00
2015,02,06,15,22,988.89
2015,02,06,15,23,988.83
2015,02,06,15,24,988.70
2015,02,06,15,25,988.72
2015,02,06,15,26,988.76
2015,02,06,15,27,988.76
2015,02,06,15,28,988.76
2015,02,06,15,29,988.79
2015,02,06,15,30,988.85
2015,02,06,15,31,988.83
2015,02,06,15,32,988.89
2015,02,06,15,33,988.99
2015,02,06,15,34,989.00
2015,02,06,15,35,989.03
2015,02,06,15,36,989.03
2015,02,06,15,37,989.03
2015,02,06,15,38,989.03
2015,02,06,15,39,988.97
2015,02,06,15,40,988.96
2015,02,06,15,41,989.00
2015,02,06,15,42,989.06
2015,02,06,15,43,989.10
2015,02,06,15,44,989.06
2015,02,06,15,45,989.03
2015,02,06,15,46,989.03
2015,02,06,15,47,988.97
2015,02,06,15,48,989.00
2015,02,06,15,49,989.03
2015,02,06,15,50,989.12
2015,02,06,15,51,989.26
2015,02,06,15,52,989.36
2015,02,06,15,53,989.33
2015,02,06,15,54,989.37
2015,02,06,15,55,989.40
2015,02,06,15,56,989.47
2015,02,06,15,57,989.53
2015,02,06,15,58,989.54
2015,02,06,15,59,989.50
2015,02,06,16,00,989.47
2015,02,06,16,01,989.44
2015,02,06,16,02,989.47
2015,02,06,16,03,989.50
2015,02,06,16,04,989.54
2015,02,06,16,05,989.57
2015,02,06,16,06,989.57
2015,02,06,16,07,989.64
2015,02,06,16,08,989.73
2015,02,06,16,09,989.80
2015,02,06,16,10,989.84
2015,02,06,16,11,989.81
2015,02,06,16,12,989.81
2015,02,06,16,13,989.81
2015,02,06,16,14,989.87
2015,02,06,16,15,989.82
2015,02,06,16,16,989.84
2015,02,06,16,17,989.97
2015,02,06,16,18,990.10
2015,02,06,16,19,990.15
2015,02,06,16,20,990.08
2015,02,06,16,21,990.01
2015,02,06,16,22,990.04
2015,02,06,16,23,990.04
2015,02,06,16,24,989.95
2015,02,06,16,25,989.82
2015,02,06,16,26,989.77
2015,02,06,16,27,989.67
2015,02,06,16,28,989.60
2015,02,06,16,29,989.54
2015,02,06,16,30,989.57
2015,02,06,16,31,989.63
2015,02,06,16,32,989.70
2015,02,06,16,33,989.74
2015,02,06,16,34,989.87
2015,02,06,16,35,989.88
2015,02,06,16,36,989.88